Domov               UVHVVR             MKGP            O straneh              
ZDRAVSTVENO VARSTVO RASTLIN
  MREŽA AGROMET. POSTAJ
 ► PROGNOSTIČNA OBVESTILA
AGROMETEOROLOŠKI PODATKI -
ARSO
OBVLADOVANJE TVEGANJ ZARADI
NEUGODNIH VREMENSKIH RAZMER
  ► NARAVNE NESREČE
  ► SUŠA/MOČA
  ► NAMAKANJE
  ► ŽLED (gozdarstvo)
KARTOGRAFSKI PRIKAZI
SPLETNE POVEZAVE
PROJEKTI IN PUBLIKACIJE

AGROMETEOROLOŠKA MREŽA: VREMENSKE POSTAJE IN FENOLOŠKA OPAZOVANJA

Pregled podatkov za lokacijo Vipolže, meteorološka postaja 44544

Pregled senzorjev na lokaciji

ID Ime Zadnja
vrednost
Datum
zadnje
spremembe
Tip
senzorja
3085 Omočenost lista (U) 0 U 25.2.2018 16:00 A730WET
3086 Padavine (mm) 0 mm 25.2.2018 16:00 Rain-O-Matic
3084 Relativna vlaga 2 m (% RH) 32,08 % RH 25.2.2018 16:00 50YA
3083 Temperatura 2 m (°C) 1,18 °C 25.2.2018 16:00 50YA
4030 Smer vetra (°) 71,75 ° 25.2.2018 16:00 Generic 0 - 360
4029 Hitrost vetra (km/h) 10,84 km/h 25.2.2018 16:00 Generic 200 km/h

Pregled podatkov zadnjih 24 ur

Zap.
št.
Datum in čas Vipolže
Omočenost
lista
Padavine Relativna
vlaga
2
m
Temperatura
2
m
Smer
vetra
Hitrost
vetra
1 25.2.2018 16:00 0 0 32,1 1,2 71,8 10,8
2 25.2.2018 15:30 0 0 32 1,2 140,8 11,6
3 25.2.2018 15:00 0 0 31,2 1,4 127,7 11,5
4 25.2.2018 14:30 0 0 30,8 1,7 92,4 11,7
5 25.2.2018 14:00 0 0 31,2 1,5 130 14,2
6 25.2.2018 13:30 0 0 30,4 0,8 83,9 18,4
7 25.2.2018 13:00 0 0 29,8 0,8 119,4 17,5
8 25.2.2018 12:30 0 0 30,1 0,9 114,2 17,4
9 25.2.2018 12:00 0 0 29,3 0,8 91 22,1
10 25.2.2018 11:30 0 0 29,3 0,7 86,7 18,5
11 25.2.2018 11:00 0 0 30,7 0,2 88,1 18,3
12 25.2.2018 10:30 0 0 33,3 -0,1 95,5 16,2
13 25.2.2018 10:00 0 0 35,1 -0,5 84,9 16,2
14 25.2.2018 09:30 0 0 38,1 -1,2 117,8 16,6
15 25.2.2018 09:00 0 0 39,7 -1,5 97,2 20,9
16 25.2.2018 08:30 0 0 39,4 -1,7 119,7 19,9
17 25.2.2018 08:00 0 0 38,9 -1,8 121,5 15,7
18 25.2.2018 07:30 0 0 39 -1,7 107,8 12,4
19 25.2.2018 07:00 0 0 40,4 -1,7 133,7 14,2
20 25.2.2018 06:30 0 0 40 -1,6 100,1 12,4
21 25.2.2018 06:00 0 0 43,1 -1,7 83,1 14,2
22 25.2.2018 05:30 0 0 43 -1,2 106,5 14,2
23 25.2.2018 05:00 0 0 44,4 -1 139,6 12,4
24 25.2.2018 04:30 0 0 45,7 -0,9 98,8 8,1
25 25.2.2018 04:00 0 0 46,6 -0,7 103,8 12,1
26 25.2.2018 03:30 0 0 47,9 -0,5 142 11,1
27 25.2.2018 03:00 0 0 49 -0,4 120,7 13,8
28 25.2.2018 02:30 0 0 50,1 0 109,5 9,2
29 25.2.2018 02:00 0 0 52,1 0,2 128,8 10,7
30 25.2.2018 01:30 0 0 53,2 0,2 86,7 15,5
31 25.2.2018 01:00 0 0 53,6 0,3 89,4 13,4
32 25.2.2018 00:30 0 0 53,2 0,5 73,9 12,3
33 25.2.2018 00:00 0 0 53,7 0,5 133,9 15,7
34 24.2.2018 23:30 0 0 53,9 0,5 102,8 17,4
35 24.2.2018 23:00 0 0 54,3 0,6 102,4 14,9
36 24.2.2018 22:30 0 0 54,1 0,8 99,9 9,4
37 24.2.2018 22:00 0 0 52,8 1,1 95,7 10,6
38 24.2.2018 21:30 0 0 50,7 1,5 90,1 12,7
39 24.2.2018 21:00 0 0 48,1 2,1 84,2 17,4
40 24.2.2018 20:30 0 0 45,6 2,6 80,7 14
41 24.2.2018 20:00 0 0 44,5 3,1 90,4 10,6
42 24.2.2018 19:30 0 0 38 4,3 73,1 13,7
43 24.2.2018 19:00 0 0 34,5 5 142,6 10,1
44 24.2.2018 18:30 0 0 35 5,3 84 13,6
45 24.2.2018 18:00 0 0 37,6 5,6 83,8 14,3
46 24.2.2018 17:30 0 0 41 6,2 114,7 13,5
47 24.2.2018 17:00 0 0 46,7 6,4 57,1 8
48 24.2.2018 16:30 0 0 43,8 7,3 93 10,6
© 2011 Ministrstvo za kmetijstvo, gozdarstvo in prehrano. Vse pravice pridržane.